Theta_e
319 320 320 320 320 321 321 321 322 323 323 322 323 323 324 324 324 324 324 323 324 325 325 325 326 326 326 326 327 326 326 322 322 317 315 317 326 337 335 335 333 334 330 317 315 311 309 310 309 311 312 314 315 311 319 315 314 312 302 298 295 296 296 299 298 299 300 297 298 301 302 301 298 303 305 304 303 303 303 303 305 306 306 307 308 309 314 315
319 319 319 319 319 320 320 320 321 322 321 321 322 322 323 323 323 324 323 323 324 324 324 325 325 326 326 326 326 326 324 324 316 315 314 328 336 335 338 337 336 331 328 316 312 309 308 308 309 309 309 307 321 310 313 312 315 306 300 299 295 298 300 303 302 302 300 299 301 301 301 301 300 301 304 300 300 300 300 302 303 303 304 307 308 308 312 314
319 319 319 319 319 319 319 320 321 321 321 320 320 321 321 322 323 323 323 323 323 323 324 324 325 325 326 326 325 325 324 324 319 312 321 333 337 337 339 336 333 332 321 313 312 311 309 309 310 309 308 304 309 307 313 309 309 305 301 295 297 302 303 304 304 303 304 302 301 301 301 300 301 301 305 300 299 300 299 299 300 301 301 303 304 307 311 312
319 320 319 318 319 319 319 319 320 320 320 320 320 321 321 321 322 323 323 322 323 323 323 324 324 325 325 325 326 323 324 325 313 315 322 340 338 337 340 335 333 329 322 317 314 313 312 311 309 309 309 303 306 309 305 308 305 305 301 297 299 302 299 302 303 303 303 303 301 301 301 300 301 302 303 301 298 299 301 303 302 302 302 303 304 305 309 310
318 319 319 318 318 319 318 319 320 320 320 320 320 321 321 321 322 322 322 322 322 322 323 323 324 324 325 325 323 324 323 309 309 322 329 337 339 342 339 336 332 322 318 315 314 312 311 308 307 310 308 300 304 303 303 307 306 307 300 303 303 303 300 303 303 303 303 303 302 301 299 299 303 302 301 300 297 297 300 303 304 304 305 304 304 305 305 305
318 319 320 319 318 318 318 319 320 320 320 320 320 320 321 321 322 321 322 322 322 322 322 323 323 324 324 324 323 325 317 293 309 324 332 336 338 340 338 335 332 321 315 314 310 311 309 307 306 304 301 300 300 297 301 305 308 299 302 303 304 304 301 304 303 306 302 302 301 300 302 302 300 300 302 301 301 303 305 306 306 307 307 307 307 306 305 305
319 319 319 319 319 319 319 319 320 320 320 320 320 320 321 321 321 321 321 321 321 322 321 322 323 323 324 322 323 319 310 306 312 335 335 337 338 338 336 334 331 326 316 311 309 309 307 305 305 302 301 301 301 300 302 302 304 301 299 301 302 303 301 302 302 302 302 302 301 303 303 300 300 297 301 300 303 305 305 306 307 307 308 308 307 306 305 305
319 319 319 319 320 319 318 319 319 319 319 320 320 320 321 321 321 321 321 321 321 321 322 321 322 323 323 320 324 313 310 306 318 329 332 337 335 334 332 327 320 321 313 309 308 307 308 304 302 305 300 298 300 300 301 300 302 298 299 302 303 302 302 302 302 302 302 302 303 302 301 301 301 300 301 300 303 304 305 306 306 306 306 307 306 305 305 305
319 319 320 321 320 320 319 319 319 319 319 320 321 321 321 321 321 321 321 321 321 321 321 322 321 323 323 319 315 305 304 320 325 333 335 334 328 328 324 317 317 313 311 310 310 309 309 305 304 304 298 299 302 300 300 299 296 300 300 300 301 301 303 302 302 301 301 302 302 300 300 301 302 302 300 302 303 305 305 305 305 305 304 304 305 304 304 304
321 321 321 321 320 319 318 318 318 319 320 320 321 321 321 321 321 321 321 321 321 321 320 321 322 322 319 319 314 301 319 314 332 330 332 329 325 322 320 321 314 312 310 309 310 308 306 306 309 309 307 302 304 300 301 299 297 301 300 300 299 300 300 301 300 301 301 300 300 299 299 300 301 300 295 302 304 304 303 303 303 302 302 302 302 303 302 303
322 321 320 320 320 318 318 318 318 319 320 320 321 321 321 321 321 321 321 321 321 321 321 321 322 320 316 314 306 304 319 322 327 330 328 326 321 317 317 320 313 313 311 312 309 310 309 308 312 310 309 301 301 300 300 300 302 300 300 299 299 299 300 300 300 300 300 299 301 300 298 300 300 300 297 301 303 303 302 303 302 302 302 302 302 303 303 304
321 320 320 320 319 318 318 318 318 319 319 320 321 321 321 321 321 321 320 320 320 321 321 321 321 319 316 311 305 310 316 323 329 324 322 322 320 323 321 315 315 319 313 309 312 317 318 315 313 307 298 304 297 300 299 299 301 299 298 294 296 298 297 300 299 300 300 299 300 300 297 295 296 295 300 302 304 303 302 302 302 302 302 302 303 303 302 302
321 320 320 320 319 318 318 318 318 319 320 320 320 321 321 321 321 320 320 320 320 320 321 321 320 320 318 305 308 320 318 322 324 322 323 320 318 317 315 318 315 313 315 312 310 311 313 312 311 303 305 303 300 296 301 300 299 300 298 295 294 295 294 299 301 301 299 299 299 298 286 290 295 298 300 302 301 301 300 299 299 301 302 302 302 302 302 302
321 320 320 319 318 318 318 318 319 320 320 320 321 321 321 320 320 320 320 319 320 320 321 321 320 319 315 303 313 314 317 322 319 320 321 320 316 320 318 320 318 312 319 314 311 309 313 307 311 306 307 302 299 307 300 299 300 294 297 296 291 290 290 299 300 299 297 298 299 298 288 290 295 299 301 303 301 300 298 298 300 302 302 302 302 302 302 302
321 320 320 319 318 318 318 319 320 320 320 321 321 321 320 320 320 320 319 320 321 320 320 321 319 317 304 304 311 315 320 317 312 318 321 314 314 316 315 315 316 316 310 310 313 311 308 314 311 303 299 304 303 299 295 295 296 296 291 288 292 289 291 298 302 298 296 295 298 296 288 290 295 298 300 301 301 301 299 299 300 301 302 302 302 301 301 302
322 321 320 319 318 318 319 319 319 320 321 321 321 321 320 321 320 319 319 319 319 320 320 317 315 317 306 300 311 323 318 309 309 317 314 319 318 316 314 312 311 310 311 308 310 310 308 311 301 301 300 301 297 293 292 291 292 294 291 289 290 291 293 295 300 299 299 296 296 295 289 293 294 298 299 301 300 300 299 300 300 301 301 302 301 301 299 301
322 321 320 319 318 318 319 319 319 320 322 322 322 321 322 319 319 319 320 321 319 319 320 316 313 310 298 309 308 309 307 314 312 316 316 314 315 315 309 309 306 306 309 306 307 310 306 303 304 301 301 296 296 296 288 286 288 290 293 290 293 291 293 291 298 301 298 296 292 295 292 292 295 297 299 300 300 299 299 299 300 300 300 300 301 300 299 301
321 321 320 319 318 318 319 319 320 322 322 322 321 322 320 319 320 319 317 317 322 319 317 319 313 308 301 307 302 304 311 308 317 313 315 312 314 311 308 305 306 305 304 302 306 301 303 297 300 294 296 295 294 292 286 284 289 289 291 291 292 294 294 293 292 298 299 297 294 293 293 294 295 297 298 300 301 300 299 300 300 300 300 300 300 300 300 302
320 320 319 319 318 318 319 320 321 322 322 322 324 322 319 319 319 319 318 314 311 309 301 301 304 296 298 306 308 307 315 314 315 313 306 309 313 310 310 309 308 302 300 298 298 299 300 300 301 294 291 292 293 293 291 292 295 293 294 292 292 290 292 292 296 299 298 296 295 295 293 295 294 296 298 300 300 299 299 299 300 300 300 300 300 301 302 302
320 320 320 319 319 319 320 321 322 323 322 321 321 321 317 313 311 307 309 311 305 307 307 308 305 306 307 310 312 307 316 316 306 312 310 317 309 306 305 305 308 303 299 296 298 297 301 292 289 289 292 295 297 297 296 297 296 295 295 293 292 292 293 296 297 299 299 296 295 294 294 294 295 296 297 299 299 298 297 297 298 299 299 300 301 301 302 303
320 320 319 319 319 320 320 322 322 322 322 321 320 316 308 307 303 302 306 309 310 309 308 310 312 310 309 314 308 308 305 304 307 307 310 312 308 304 301 302 299 296 297 299 298 301 299 291 292 295 297 298 298 299 299 298 297 295 293 292 292 292 291 295 296 298 300 295 292 293 293 293 294 296 298 299 297 297 297 297 298 298 298 300 300 301 301 302
320 320 320 320 320 320 321 322 322 322 321 322 319 313 311 307 309 311 308 303 312 315 314 313 314 312 315 314 310 312 310 305 304 307 313 311 305 300 300 300 297 295 299 298 298 294 292 290 295 298 300 300 299 299 298 297 295 295 292 291 290 291 294 296 297 299 296 293 290 292 291 292 294 296 298 298 298 298 299 299 298 299 299 300 300 300 299 299
319 319 320 320 320 321 321 322 321 321 321 319 317 314 310 312 315 315 311 304 302 310 309 310 309 310 311 314 307 311 304 303 303 305 305 309 302 301 302 297 297 297 299 299 293 293 289 294 297 300 300 298 297 298 297 296 295 292 291 289 288 292 291 288 295 296 295 293 290 292 291 292 295 297 297 299 298 298 300 301 302 301 300 298 298 298 298 297
319 319 319 319 320 321 322 321 321 321 322 319 316 312 315 316 315 313 307 300 302 308 311 312 309 309 309 307 308 306 304 305 306 304 308 306 301 303 301 299 297 297 296 298 296 294 293 298 301 299 299 297 296 296 295 293 292 294 293 291 291 292 293 292 292 294 295 295 295 292 290 290 293 293 295 297 298 298 299 300 301 300 300 300 299 298 297 296
319 319 319 319 320 321 320 321 318 321 321 317 316 314 313 316 312 314 305 301 302 303 311 312 313 313 306 313 312 303 305 306 304 304 308 307 304 301 300 304 300 296 298 299 298 296 295 300 301 297 298 297 296 293 294 294 290 291 294 294 294 294 292 293 293 292 288 287 290 290 281 284 291 293 294 296 296 296 297 297 297 296 297 297 296 296 296 296
319 319 319 319 320 320 322 317 320 322 319 316 314 315 316 313 314 313 305 297 293 303 304 300 312 300 312 301 310 305 304 300 301 306 307 306 305 301 300 297 300 294 297 298 296 297 296 299 300 297 297 296 295 294 295 296 290 288 290 295 295 293 293 292 291 289 282 281 289 292 282 280 290 291 294 296 296 294 296 295 295 295 296 295 295 294 294 295
320 319 319 320 320 321 316 314 318 320 315 313 316 314 315 315 316 312 301 295 291 304 300 300 303 303 309 302 305 306 291 296 302 304 304 309 302 305 296 296 297 299 299 300 293 290 297 297 295 295 296 294 292 290 296 296 291 287 294 294 293 293 290 291 291 289 286 290 291 291 288 281 282 288 295 297 293 292 293 293 293 294 294 294 294 293 293 293
320 320 320 320 321 320 319 319 320 318 315 312 314 312 312 312 314 311 300 286 286 305 297 298 303 309 306 300 305 298 295 300 296 299 302 305 303 300 298 296 296 296 296 295 284 296 296 295 295 294 293 291 290 294 298 298 292 291 293 294 292 292 291 291 289 286 286 284 281 285 290 282 281 289 295 295 290 290 290 291 292 293 293 293 293 293 293 293
320 320 319 319 320 321 322 318 317 317 311 311 310 309 309 312 307 302 294 284 300 300 308 297 311 304 300 302 298 298 296 297 294 298 305 305 306 299 294 297 297 295 297 296 290 294 296 295 297 298 294 290 294 294 296 297 291 295 294 296 295 293 293 291 285 284 284 282 279 285 289 281 282 290 292 292 290 289 289 291 291 292 292 291 292 291 292 292
318 318 319 319 319 318 317 317 315 312 309 310 309 308 309 306 305 295 288 282 301 293 302 300 301 296 298 295 295 297 295 296 298 299 300 299 300 303 298 297 295 294 294 296 294 295 294 295 297 294 293 295 293 292 294 296 295 295 295 292 291 291 289 288 286 285 282 278 281 287 289 287 279 288 288 290 290 291 291 291 291 291 290 291 290 290 290 291
314 315 317 318 316 318 317 313 315 309 311 310 309 310 310 308 298 288 283 293 300 300 302 300 296 301 295 294 293 296 299 296 296 297 294 299 296 298 297 293 298 292 288 288 288 294 294 295 293 295 297 296 295 294 293 295 295 294 289 287 286 285 285 285 283 284 278 278 284 287 290 290 279 283 289 290 292 293 292 290 290 289 289 289 290 290 290 290
311 313 317 319 319 321 315 314 312 311 309 310 311 312 309 293 298 286 286 301 291 297 297 297 300 298 296 301 299 298 294 295 296 295 293 292 292 291 291 290 291 285 285 285 286 291 289 291 294 298 297 296 293 291 292 293 292 290 287 285 281 280 282 279 280 275 277 278 284 285 289 284 283 288 293 292 292 292 293 292 290 289 289 290 289 289 289 289
309 311 313 318 317 317 315 312 311 310 310 310 312 310 299 289 282 292 291 297 293 299 297 301 298 297 299 298 298 297 297 295 294 293 295 294 293 294 297 295 298 293 285 290 287 288 289 294 295 295 295 296 296 287 287 286 288 288 284 282 281 278 278 275 280 282 282 284 285 285 289 282 288 291 294 291 291 291 290 291 291 290 289 289 289 288 288 288
308 310 314 315 318 317 312 311 310 311 311 311 309 303 295 285 285 298 295 296 297 299 299 298 295 299 299 294 300 298 295 297 292 292 294 293 291 290 294 297 295 294 293 288 285 285 282 283 291 293 288 295 294 294 293 292 289 288 291 288 284 283 280 276 280 278 279 281 284 288 284 281 281 286 289 291 290 290 291 290 289 289 289 288 288 288 287 287
308 312 314 315 315 315 311 312 310 313 314 310 304 297 287 286 290 290 291 296 297 298 297 300 298 297 296 297 300 300 299 294 295 294 292 292 290 291 292 294 295 295 293 286 288 285 287 286 293 297 295 294 293 296 295 290 286 287 287 288 283 283 288 282 285 283 282 281 280 282 281 285 288 290 291 290 290 289 290 289 289 288 288 288 287 287 286 287
310 312 312 311 312 315 313 312 312 314 311 305 297 290 287 291 288 295 294 302 299 296 296 297 297 294 293 293 299 298 303 296 296 294 293 293 294 292 296 297 293 295 291 286 289 283 286 283 294 294 295 292 292 295 294 294 281 285 286 281 284 290 288 282 283 285 284 281 279 285 283 287 292 290 289 288 288 287 287 287 287 287 287 286 286 286 286 286
307 310 305 308 311 316 314 313 313 313 311 303 295 288 295 295 300 300 301 299 298 299 296 291 293 292 292 292 293 296 297 298 294 292 288 296 292 296 294 296 299 295 296 294 288 293 283 286 295 293 290 294 296 294 295 294 292 286 281 285 290 292 289 284 276 280 277 276 279 282 280 282 282 279 287 286 285 285 285 285 286 286 285 285 285 285 285 285
305 304 304 305 312 317 316 315 314 311 307 299 292 294 301 296 302 300 300 298 298 300 296 292 294 297 292 292 292 294 297 291 293 292 289 294 287 299 294 295 298 297 297 298 290 291 293 283 290 294 294 293 294 294 292 294 294 288 286 292 284 280 278 283 280 273 275 275 276 279 282 282 283 284 284 284 283 284 284 285 284 283 283 283 283 283 284 284
302 302 297 305 314 316 314 315 313 307 302 294 293 292 298 299 302 301 301 300 302 298 294 296 293 296 295 292 294 296 294 288 294 292 288 291 286 296 294 298 295 296 296 298 293 293 293 283 285 292 294 293 292 289 281 284 291 291 292 287 291 284 282 280 281 279 280 275 277 276 281 279 287 285 287 286 285 285 285 284 284 285 285 285 285 286 286 287
298 295 294 309 313 315 313 313 307 304 298 291 294 294 300 298 301 302 301 302 298 297 295 295 297 293 296 294 296 291 294 293 292 291 291 293 291 296 293 299 296 296 295 296 294 297 286 290 279 287 291 292 283 287 283 287 283 282 283 282 285 282 286 285 284 283 279 278 278 278 276 281 285 287 287 287 286 286 286 285 285 286 287 288 287 287 287 287
301 297 298 308 313 314 313 309 301 296 295 298 299 297 299 297 300 299 303 305 301 305 298 297 295 293 294 293 293 296 292 293 293 290 291 292 292 287 296 295 297 295 298 295 293 292 286 285 282 285 283 283 286 292 293 292 293 289 285 283 286 282 279 277 277 285 282 281 278 278 276 282 286 289 289 287 287 287 289 284 286 286 287 287 288 288 288 288
297 289 296 308 314 313 306 296 297 300 297 294 294 298 296 303 298 300 300 302 302 299 302 298 298 296 295 294 295 293 292 290 292 291 293 289 295 293 295 297 297 297 293 287 290 292 289 284 282 282 285 286 289 294 295 295 293 291 290 288 291 286 283 280 276 280 283 282 284 282 279 280 284 286 287 288 288 288 289 289 288 288 288 288 288 288 288 287
294 291 303 305 312 310 301 294 296 295 294 297 301 300 302 299 298 300 298 299 297 300 297 296 296 294 296 295 294 293 294 289 291 290 292 292 293 292 296 297 299 296 295 290 294 289 292 284 281 284 288 289 292 294 293 292 291 288 288 287 285 283 284 282 283 281 278 280 279 279 277 282 286 286 287 287 288 289 289 289 288 288 287 287 286 286 286 285
295 296 299 306 307 308 297 287 288 291 293 297 298 297 301 299 298 296 296 298 296 296 295 295 297 298 294 297 294 291 294 285 291 291 289 292 288 296 296 296 297 287 292 291 288 293 285 286 284 280 281 282 284 286 287 289 288 285 284 287 289 288 286 283 283 285 280 281 282 278 273 282 285 283 286 287 288 288 289 289 289 287 287 287 286 286 285 285
296 299 300 301 306 303 292 294 291 290 292 292 293 292 294 297 299 299 298 296 299 297 295 293 296 296 294 296 293 295 295 291 286 288 291 290 291 295 290 295 297 290 290 292 294 295 287 284 282 277 275 274 273 274 275 279 284 285 285 285 288 287 285 283 280 282 278 282 283 278 278 286 286 285 285 286 287 288 288 287 286 287 287 286 285 285 284 285
292 286 294 296 300 299 298 300 296 294 291 291 290 292 294 292 297 300 299 297 298 298 296 296 295 296 292 293 290 290 290 294 288 286 286 287 288 290 292 292 293 292 291 293 291 291 283 285 284 282 280 278 280 281 285 286 284 282 283 284 284 286 286 284 284 281 278 281 279 281 282 282 283 285 284 283 284 285 286 285 284 284 285 284 284 283 283 283
294 288 290 286 296 296 294 297 295 295 291 295 288 292 290 292 294 296 300 292 297 296 295 295 294 291 291 292 290 290 291 289 291 289 288 286 287 287 292 291 291 289 291 291 292 288 285 282 284 284 283 283 284 284 286 286 282 282 281 281 284 283 283 281 280 278 281 278 275 283 283 279 281 284 285 284 284 284 286 285 284 283 283 282 282 283 286 282
283 288 293 296 291 287 289 290 295 294 295 295 291 294 291 291 291 289 296 297 297 296 290 292 293 294 292 290 290 285 287 287 287 285 289 287 287 287 286 290 287 290 289 288 291 285 280 276 279 281 278 282 283 284 285 284 283 283 282 282 281 283 282 280 280 282 283 279 276 282 283 280 281 284 285 286 285 285 286 281 283 284 283 282 281 280 280 280
291 289 288 293 288 291 293 294 295 293 292 294 291 292 289 290 289 292 292 292 293 291 294 284 288 290 291 291 289 284 285 279 280 285 283 280 282 283 281 284 287 288 287 283 285 285 281 275 278 280 278 280 281 282 283 282 281 282 281 282 282 282 282 282 281 282 281 279 281 281 281 281 283 284 285 282 283 283 282 282 281 281 281 281 280 280 279 279
286 286 284 293 292 289 291 294 294 293 290 293 288 289 290 289 288 292 292 291 285 289 294 289 288 286 286 286 286 284 284 284 283 280 283 281 282 282 281 283 280 283 283 281 283 282 281 276 282 276 276 276 280 281 282 281 280 279 280 281 282 282 281 281 281 281 281 280 282 281 280 280 285 283 281 281 280 282 281 281 280 280 280 279 278 279 279 279
291 291 291 286 285 287 288 289 291 291 289 290 288 289 290 290 288 291 290 293 290 287 290 288 287 284 284 286 286 284 287 284 284 283 284 280 278 284 279 279 284 278 280 277 280 278 282 277 279 275 273 273 277 276 277 279 278 277 277 278 279 279 277 279 279 281 279 278 279 279 278 279 280 280 281 281 280 279 279 279 279 279 278 278 278 278 279 278
292 292 293 288 281 290 284 287 287 288 285 289 289 289 288 289 291 290 286 292 291 292 291 291 290 287 284 283 283 287 288 287 288 289 288 286 286 285 286 285 285 281 277 278 282 277 277 276 276 276 274 273 277 277 275 276 275 273 274 277 279 279 280 281 281 282 282 282 278 275 276 278 278 280 278 278 277 277 277 278 277 278 278 278 277 278 278 278
Wind_Speed
8 8 9 9 10 10 10 10 10 10 9 10 10 10 10 9 10 9 10 10 10 11 11 11 11 11 11 11 11 12 12 5 4 6 6 8 6 6 9 11 11 9 7 3 3 4 4 5 4 3 3 1 2 2 1 1 1 0 1 2 4 6 6 3 5 4 4 4 4 5 3 3 4 0 1 1 3 5 9 10 6 8 9 8 8 6 7 8
7 7 9 10 9 10 10 9 10 9 10 10 10 11 11 10 11 10 10 10 11 12 12 12 12 12 13 12 12 12 10 4 7 6 13 4 12 10 8 9 10 11 7 3 5 5 3 4 4 4 2 2 3 1 3 0 3 2 2 3 5 3 4 7 5 6 4 4 7 6 5 4 4 4 0 4 4 4 7 9 6 7 7 10 11 6 10 10
7 8 8 9 10 10 10 11 10 9 10 10 10 11 11 11 11 11 10 11 11 12 12 12 12 13 13 13 12 13 7 3 6 9 1 3 11 10 9 9 11 10 8 3 4 4 5 2 2 5 3 4 3 2 1 2 2 4 3 4 6 4 6 7 5 6 3 4 5 5 4 5 5 5 1 5 7 4 8 10 7 6 6 7 3 5 8 8
7 7 8 9 9 10 10 10 11 10 10 10 10 11 11 12 12 12 11 11 12 12 13 13 13 13 13 14 13 9 4 4 3 2 2 4 7 9 9 9 11 10 5 6 2 4 5 2 4 3 3 4 3 3 4 2 1 3 4 4 4 4 6 6 9 8 6 4 4 4 4 7 6 5 1 4 6 5 10 9 10 11 7 7 9 9 1 8
7 7 8 9 9 9 10 10 10 11 10 10 11 11 11 12 12 11 11 11 12 12 13 13 14 13 13 14 14 6 4 4 1 2 4 4 7 6 8 9 10 6 5 3 2 4 3 3 3 2 2 3 3 4 5 3 6 2 5 5 5 5 7 8 8 10 4 3 4 5 6 5 4 5 3 4 8 9 7 8 9 12 12 10 10 8 7 8
7 8 8 9 9 10 10 10 10 11 11 11 11 11 11 12 12 12 12 11 11 12 13 13 13 14 14 14 9 3 1 3 2 1 6 5 6 7 8 9 9 4 4 4 3 2 2 4 3 3 2 3 4 6 3 8 7 6 5 8 8 7 9 6 5 1 1 3 5 6 4 6 6 6 6 6 10 10 9 11 13 13 12 12 8 7 9 8
7 8 8 9 9 9 10 10 10 10 10 11 11 11 12 12 12 12 12 12 12 12 12 12 12 13 14 14 4 3 3 5 2 2 8 5 6 6 6 5 4 2 3 4 5 3 4 5 4 4 4 5 7 8 9 7 4 6 7 3 8 9 14 12 11 8 1 3 7 6 6 8 7 10 5 8 10 11 10 10 12 12 11 10 9 9 10 9
7 7 8 8 9 10 10 10 10 10 10 10 11 11 12 12 12 12 12 12 12 12 11 12 11 12 11 5 1 2 3 5 1 3 6 7 6 7 7 3 4 3 5 6 5 6 3 6 5 3 6 6 4 7 5 4 4 6 7 5 9 8 7 6 5 5 6 8 8 6 7 12 8 9 7 14 14 14 13 13 13 12 11 9 9 10 8 8
3 6 6 6 8 7 9 11 10 10 10 11 11 12 12 13 13 13 13 13 13 12 11 11 11 10 7 3 3 5 7 0 2 7 7 7 6 6 7 5 5 5 4 5 5 4 3 3 6 3 6 6 3 5 4 4 6 6 8 4 5 5 7 8 10 11 10 8 4 4 10 10 9 8 13 17 17 16 14 14 14 13 10 10 10 8 8 7
7 8 7 5 6 8 10 10 10 10 11 11 12 12 13 14 14 14 14 14 14 13 12 10 10 8 6 1 2 6 1 3 2 6 6 6 7 6 5 2 8 5 4 5 4 5 4 3 2 3 4 6 4 8 5 6 8 4 4 5 7 8 9 9 11 14 10 9 7 7 8 10 5 3 9 7 12 9 8 7 5 6 7 7 6 6 6 8
7 7 8 7 7 9 10 11 11 11 11 12 12 13 13 14 15 15 15 15 13 13 11 10 5 5 2 2 4 9 1 1 1 3 4 6 6 6 3 3 6 4 6 4 6 4 4 4 4 3 2 3 5 6 4 5 3 3 5 7 11 10 11 14 13 17 10 8 10 11 10 9 8 4 13 15 13 10 9 10 8 6 7 8 8 9 7 7
6 8 8 8 8 10 10 11 11 11 12 13 14 14 14 15 15 15 15 14 13 11 9 7 4 3 3 5 7 6 2 3 0 2 4 4 3 3 4 4 1 4 4 6 4 1 3 3 4 0 4 3 3 5 4 6 2 3 4 7 11 11 13 14 13 15 8 8 4 3 2 5 6 5 14 14 12 11 10 10 9 7 7 8 9 9 7 7
5 7 9 8 10 10 10 10 11 12 13 14 14 15 15 15 16 15 14 12 9 8 6 3 3 3 2 5 8 1 3 2 2 4 3 3 2 1 3 1 3 3 3 3 3 4 4 3 2 3 5 6 5 5 0 0 2 3 4 6 12 10 9 12 10 13 14 1 10 7 3 3 6 6 6 8 3 2 3 5 6 7 9 8 8 8 8 6
4 7 5 8 10 10 11 11 12 13 14 14 15 15 16 16 16 15 12 10 9 8 5 3 2 3 3 6 1 3 2 1 4 3 3 3 4 1 0 1 2 1 2 2 2 3 3 3 3 4 4 7 4 3 4 3 3 5 5 4 6 7 6 7 7 1 2 1 8 4 4 3 8 9 7 3 1 4 5 6 9 12 13 11 9 8 8 8
5 5 7 10 10 11 11 12 13 13 13 14 15 16 16 16 14 11 8 8 5 2 3 3 3 2 3 5 4 2 4 2 3 2 3 4 3 2 3 2 1 0 0 2 1 1 1 1 0 1 3 4 6 6 6 3 3 6 5 4 3 7 4 8 9 5 3 1 2 4 4 8 9 8 5 5 7 9 10 10 14 14 13 12 8 6 6 6
7 5 4 7 10 11 11 11 12 12 13 15 16 17 15 13 8 4 5 5 3 4 4 3 4 3 5 7 1 2 1 2 4 4 3 3 2 1 4 3 2 2 1 2 1 0 1 0 3 1 3 2 1 3 5 4 4 6 7 5 7 5 7 6 3 5 3 4 3 9 6 3 4 5 5 7 8 11 13 14 15 15 13 12 9 6 5 5
5 5 5 5 10 10 11 11 12 11 13 13 16 14 9 4 2 2 2 3 3 3 3 2 3 4 4 1 2 2 3 1 2 1 1 1 1 3 4 3 2 3 2 2 2 1 2 2 2 1 1 4 3 3 3 4 6 5 4 8 5 7 4 3 3 1 5 5 3 8 7 7 8 7 12 12 11 11 14 17 17 14 10 9 8 5 4 3
4 5 6 8 10 10 9 12 12 12 12 13 15 12 6 2 1 2 2 3 2 4 5 5 4 2 7 3 5 1 3 4 2 3 2 0 2 2 3 3 2 3 3 2 2 3 4 2 3 3 2 5 4 3 4 7 5 3 4 6 7 6 6 8 7 3 7 1 6 4 9 9 6 4 5 7 10 11 13 15 14 11 10 11 8 6 5 8
5 5 5 9 9 10 11 12 12 12 13 17 18 3 4 4 3 4 4 3 2 1 1 4 3 5 1 0 5 6 1 3 3 2 3 3 2 3 3 0 3 6 3 4 3 7 3 1 3 1 5 6 7 9 10 10 8 10 8 8 9 9 7 8 6 8 7 11 10 9 10 8 5 5 9 12 13 12 11 11 13 11 11 9 6 7 9 9
8 8 9 10 9 10 12 11 13 15 15 12 7 0 2 1 2 2 3 6 7 8 8 2 10 8 11 9 3 2 1 3 3 1 4 1 3 3 4 3 3 4 3 3 4 7 5 5 5 6 8 8 9 10 11 11 10 10 8 7 8 9 8 7 10 8 6 8 8 7 6 7 7 8 12 16 13 11 8 8 12 12 7 5 6 4 10 13
8 7 9 10 11 11 10 12 13 14 15 8 7 5 2 4 3 1 3 7 9 11 12 11 10 10 11 1 5 4 3 3 3 3 3 2 2 6 5 4 4 5 5 6 5 0 5 5 6 8 10 11 11 9 9 10 6 8 8 8 11 6 11 6 9 6 9 6 3 4 6 7 8 12 18 15 9 11 8 11 13 8 4 4 6 8 11 12
8 7 8 10 10 10 11 12 13 13 15 7 3 4 3 3 1 0 1 5 3 6 9 10 9 11 7 9 3 1 4 2 5 5 1 2 5 5 6 7 8 6 6 7 3 1 3 7 7 11 11 10 10 9 9 9 7 6 7 6 7 7 8 10 12 10 2 2 4 4 6 7 11 17 18 13 10 10 9 11 2 7 8 8 8 13 13 13
7 8 9 8 8 9 10 11 12 12 8 5 2 4 2 1 0 1 0 4 9 10 10 11 12 13 12 2 4 1 3 7 6 7 6 3 6 5 5 6 6 6 4 6 7 4 5 5 17 14 9 9 9 9 8 9 7 5 5 5 8 5 6 4 2 5 3 2 7 7 11 8 14 15 15 12 11 5 6 4 11 12 13 14 15 12 12 13
9 9 9 8 8 10 10 11 12 9 4 2 2 3 1 2 2 1 1 4 5 5 5 2 3 3 2 3 2 2 6 4 6 8 6 6 7 4 3 7 6 5 7 8 10 8 8 5 3 2 6 8 9 7 6 6 7 4 6 7 7 6 7 8 4 6 5 6 6 6 6 5 11 11 8 5 4 4 5 13 14 13 12 11 12 14 13 13
9 10 8 8 8 6 7 9 5 2 2 2 1 2 2 2 2 2 1 4 4 5 2 1 1 1 2 2 1 2 3 4 3 4 3 2 3 4 5 4 4 7 7 7 8 10 11 9 7 5 4 5 4 5 7 5 6 5 6 5 5 5 6 6 8 8 5 4 2 4 5 3 5 5 6 5 4 5 9 16 13 13 11 12 13 11 11 11
10 10 9 8 7 3 4 4 1 2 3 1 2 2 1 2 3 1 1 2 7 1 3 5 0 2 1 2 2 2 3 4 3 2 2 2 1 2 2 2 3 4 2 2 6 3 1 3 2 1 2 4 4 5 4 2 5 3 2 4 4 4 4 5 6 5 3 0 2 2 2 6 1 8 9 13 4 10 9 13 10 9 11 11 10 10 10 10
11 10 9 8 5 3 1 1 1 2 3 2 1 2 1 2 2 1 1 3 6 2 4 2 1 1 1 1 0 0 3 1 1 1 1 1 1 1 2 1 2 2 0 0 3 3 4 6 3 1 1 2 3 5 4 8 5 5 0 2 4 3 3 2 2 2 6 3 5 5 5 7 5 4 11 14 4 9 11 10 9 10 10 10 9 10 9 9
11 10 9 8 6 8 2 3 4 3 1 3 3 4 3 1 1 0 1 3 3 2 2 2 1 0 1 1 0 2 2 3 3 1 2 1 1 2 0 3 2 0 3 1 3 0 1 2 1 2 1 3 5 5 1 1 2 2 1 3 1 0 2 1 3 4 4 4 5 6 6 1 5 6 11 10 10 7 7 7 7 7 8 8 9 9 9 9
11 10 8 7 6 10 2 1 2 4 1 0 3 3 0 1 1 1 1 3 0 1 2 3 2 0 2 1 3 2 2 2 2 2 1 0 1 2 3 4 2 3 4 6 4 1 2 1 2 1 2 5 5 1 0 3 3 1 2 0 3 2 3 4 4 3 3 1 5 2 6 4 7 7 8 3 11 7 5 7 7 7 7 6 7 8 9 6
5 5 5 6 4 2 2 2 3 2 3 2 2 3 1 1 0 2 2 6 3 0 1 1 0 3 3 4 2 4 3 1 2 2 2 1 3 0 1 2 2 1 3 4 6 5 1 2 3 1 4 5 2 1 1 2 1 1 1 3 4 4 5 3 3 3 1 3 6 8 10 7 3 5 5 3 4 9 8 6 6 6 7 7 7 8 6 7
4 3 5 12 5 3 5 3 3 4 4 3 2 1 1 1 2 1 7 1 2 1 0 1 1 0 3 4 2 4 2 3 3 3 2 0 2 2 1 2 1 2 1 2 5 6 2 2 1 3 5 1 3 1 1 0 0 0 0 1 3 7 1 1 1 3 0 4 1 7 3 10 3 4 6 4 5 8 11 11 9 8 6 6 6 6 7 7
6 3 5 8 1 2 4 2 3 4 4 3 1 2 2 1 1 7 1 1 1 1 0 1 2 1 4 2 2 2 1 2 3 2 2 3 3 4 4 2 3 0 2 4 3 2 3 6 4 3 2 6 2 0 0 1 1 1 1 1 0 2 0 2 2 1 4 6 0 3 10 4 5 2 9 5 6 7 7 9 10 10 9 7 6 5 4 5
6 6 5 4 4 3 1 3 4 5 5 2 1 1 1 2 6 4 2 1 2 2 1 3 0 1 1 3 1 2 2 1 1 0 3 2 0 5 4 6 0 2 3 0 2 1 4 4 8 3 3 3 3 5 2 2 3 2 2 3 1 2 1 3 3 2 2 1 2 4 6 3 5 7 4 8 7 7 10 10 8 10 10 8 7 4 4 5
8 8 2 2 2 2 4 5 5 5 5 2 2 1 2 4 4 3 7 5 2 1 3 1 1 1 0 2 0 2 1 1 3 2 1 0 1 2 4 5 4 0 1 1 1 2 4 4 3 4 2 5 6 4 2 2 6 7 1 2 5 3 1 4 2 6 3 3 6 7 6 3 3 3 1 9 7 9 9 10 9 9 8 7 5 5 5 5
8 6 4 1 1 3 5 6 7 5 4 3 2 4 6 7 1 2 2 2 1 1 2 2 2 2 3 3 3 3 2 2 3 3 1 4 3 3 2 4 5 2 0 1 3 1 7 6 2 4 0 7 8 3 3 3 2 0 1 3 2 5 2 6 3 3 3 4 6 3 4 1 0 4 6 5 8 9 7 8 8 8 6 6 5 5 5 5
5 2 2 2 2 3 5 5 6 4 6 4 4 6 11 6 3 3 2 1 2 4 2 1 1 1 3 3 3 5 5 1 3 2 2 5 5 4 2 1 4 10 5 5 2 1 1 3 4 4 3 5 3 5 2 3 1 0 3 2 4 2 3 1 3 3 1 0 11 3 5 6 2 4 5 7 8 7 5 6 6 8 6 5 5 5 5 5
3 3 2 2 2 5 6 7 5 4 3 5 5 8 7 3 7 3 2 2 1 3 3 3 3 7 4 4 3 3 2 2 2 2 2 2 4 8 6 5 4 6 8 6 3 4 4 3 2 4 1 6 1 2 2 2 2 5 1 3 1 0 3 2 2 1 2 6 8 3 7 7 2 4 5 5 8 5 5 4 6 6 5 5 4 4 4 4
2 1 3 5 3 7 6 7 7 3 4 7 12 12 3 6 6 10 3 3 1 0 3 5 2 4 2 2 3 6 1 1 2 3 3 2 4 2 3 1 3 7 8 5 3 2 1 4 5 5 8 2 2 3 1 0 4 4 3 1 0 1 1 2 2 3 3 7 5 3 7 6 6 5 6 6 9 8 6 5 4 5 4 4 4 4 3 2
1 1 4 4 7 8 6 6 5 7 4 8 9 11 5 9 1 0 4 4 1 3 4 4 5 2 2 3 4 1 9 6 6 6 1 4 5 1 3 3 2 6 7 2 4 1 3 2 2 3 2 1 2 3 2 3 1 3 1 2 0 1 3 2 4 3 3 9 6 7 7 8 1 2 3 8 9 8 8 5 4 5 5 5 4 3 3 1
3 2 5 2 2 8 8 6 3 5 8 15 10 9 1 0 6 9 4 7 3 4 4 5 6 5 5 6 3 5 4 9 6 5 5 1 3 3 2 5 2 3 5 4 2 1 1 3 4 2 2 2 1 2 5 6 4 1 0 3 0 1 2 2 2 5 3 5 7 8 8 8 2 4 4 8 8 6 6 6 4 4 5 5 6 7 6 6
2 2 1 1 4 9 9 6 7 11 10 6 7 5 4 5 1 1 1 4 1 2 1 4 4 7 5 5 10 7 4 4 3 6 3 3 7 5 2 3 4 1 1 0 1 2 0 1 5 2 2 3 4 1 1 1 1 1 3 6 7 4 2 3 10 3 5 6 8 8 12 3 2 2 5 8 6 8 6 5 6 5 7 6 5 5 5 4
5 4 2 3 7 10 11 13 7 4 5 12 9 5 5 3 1 1 1 1 3 1 2 1 4 5 4 8 5 3 3 3 5 4 2 4 1 2 0 5 3 2 2 1 1 1 2 0 1 5 6 7 4 0 2 3 2 4 2 3 2 1 2 2 11 8 4 4 5 8 9 4 1 5 3 5 7 6 8 8 8 7 7 7 5 5 3 4
6 4 3 4 4 10 7 7 7 7 9 6 2 3 2 1 3 2 3 2 2 4 2 4 7 5 7 6 4 7 5 4 4 4 3 3 0 3 3 3 2 2 2 1 2 0 7 1 1 6 7 9 10 7 3 2 3 0 1 1 2 3 2 3 3 3 0 4 5 2 6 2 2 2 2 3 4 5 4 6 7 7 5 5 6 4 4 4
4 4 3 2 2 6 8 10 10 11 10 5 5 5 4 3 3 3 5 4 3 3 4 3 2 8 4 3 3 7 5 5 4 8 6 4 2 2 4 3 3 1 1 2 2 3 1 3 2 2 3 3 5 1 3 3 4 2 1 2 1 2 2 2 1 1 5 6 9 5 8 4 2 3 3 3 3 4 5 4 5 6 5 6 6 4 3 2
2 2 3 2 2 5 13 7 6 7 10 11 9 10 8 5 5 8 5 6 5 5 3 3 6 1 4 3 2 2 2 3 1 2 3 1 3 1 6 5 4 4 4 1 3 1 2 2 1 2 4 4 5 6 2 2 0 1 1 2 3 3 5 3 5 2 6 3 8 4 3 3 0 2 3 3 4 4 3 3 2 1 3 5 4 4 3 3
6 5 4 3 5 5 5 3 3 4 5 8 10 10 9 10 5 7 9 7 7 5 6 1 2 2 0 1 1 3 3 1 4 1 1 1 2 1 2 7 6 2 2 2 3 1 1 1 1 4 6 9 9 6 4 3 0 2 3 3 5 4 5 5 5 9 12 7 8 8 11 12 12 9 5 8 6 6 6 4 4 2 2 2 3 3 4 3
3 3 5 5 4 8 6 7 8 5 3 3 7 4 11 11 7 3 8 3 6 8 4 5 3 3 3 5 6 6 6 5 5 5 5 2 1 2 2 5 6 4 2 3 2 3 0 2 6 6 7 10 8 9 9 8 9 8 8 10 10 10 7 8 9 12 2 5 14 8 9 6 7 6 5 3 4 7 5 4 5 5 5 5 4 4 4 2
2 4 2 4 6 6 13 10 11 9 9 6 5 4 8 10 10 7 3 4 2 1 3 2 8 8 6 6 4 5 5 7 6 5 5 2 4 2 2 2 2 3 3 1 1 2 1 3 3 4 5 8 6 9 7 8 7 6 9 10 12 11 11 13 12 8 5 10 14 7 11 13 10 11 9 9 6 4 7 4 5 5 5 5 4 3 2 2
3 2 2 4 1 3 11 6 9 11 12 10 4 5 5 7 7 5 2 5 3 2 6 4 5 6 4 2 1 2 2 1 3 1 1 2 1 2 2 2 1 3 1 1 0 1 1 3 6 3 7 8 8 8 5 7 5 8 10 12 13 13 15 11 9 8 11 11 11 13 12 14 10 13 9 2 1 3 4 5 4 4 4 5 4 4 4 3
2 1 1 1 1 3 3 4 7 10 11 10 7 9 4 4 7 2 2 4 2 4 4 6 3 5 3 2 0 4 1 2 1 2 1 5 1 2 1 1 1 0 1 1 1 3 2 4 5 3 1 5 7 5 2 4 4 10 9 12 15 17 14 10 12 13 11 11 13 14 14 16 11 2 1 1 2 4 4 2 3 3 4 4 2 1 1 1
1 2 0 3 1 2 1 1 5 8 8 9 11 11 5 7 8 3 1 2 3 3 4 6 6 3 2 3 1 2 2 3 2 1 1 3 5 1 4 2 4 2 1 1 0 2 0 3 2 1 2 5 6 3 1 3 4 6 10 17 19 15 13 12 13 7 9 12 11 10 11 11 1 1 3 4 3 3 2 3 3 3 4 4 1 0 0 1
1 1 1 2 1 3 5 3 2 4 9 9 8 9 7 8 6 2 4 2 2 2 3 3 6 6 2 4 3 2 2 4 4 4 3 2 1 1 2 1 2 5 3 3 2 3 1 3 1 2 6 8 12 1 0 1 3 8 17 24 17 14 15 14 12 13 14 11 12 11 13 3 4 3 4 2 4 2 1 1 3 2 2 2 1 1 1 2
Wind_Direction
14 13 13 8 4 3 2 358 356 358 356 354 353 352 350 352 349 347 348 344 342 341 340 338 339 339 336 336 332 328 325 297 286 252 234 245 138 131 102 120 146 155 172 173 195 160 185 209 211 145 213 111 182 249 104 185 261 115 207 197 257 241 265 333 336 345 358 341 333 335 342 322 298 326 196 19 261 240 262 263 253 242 246 237 235 227 147 148
10 10 8 2 358 355 354 353 354 352 352 350 347 346 346 344 345 343 344 343 342 338 340 339 338 339 338 334 333 329 321 276 272 267 251 132 123 125 125 134 144 168 169 222 187 203 217 192 216 157 210 229 144 200 129 227 141 196 258 233 248 263 279 332 312 307 359 325 332 306 303 329 312 3 319 296 284 295 300 282 286 282 259 240 241 205 146 155
2 2 2 359 351 351 348 345 347 350 348 346 345 341 340 338 338 338 341 339 339 338 336 338 338 335 335 334 331 326 327 295 277 270 32 14 123 125 136 143 161 170 181 195 193 234 245 285 203 173 209 267 151 190 126 198 161 217 229 254 256 267 277 281 306 321 333 314 296 321 337 345 306 310 294 254 273 281 270 279 295 276 280 283 277 224 170 170
355 349 353 356 347 346 345 342 342 343 343 343 337 337 334 335 334 336 335 337 335 335 336 335 335 337 332 330 331 321 290 286 281 88 61 114 123 126 142 157 171 183 236 282 300 255 268 334 302 179 271 239 264 192 147 185 116 184 195 227 253 280 318 310 314 302 306 352 331 312 321 305 286 274 317 293 298 249 254 253 254 268 279 311 318 323 198 188
346 342 343 346 347 341 340 340 336 336 339 339 335 331 335 329 330 330 331 329 332 331 332 332 333 330 333 324 323 302 319 295 88 15 106 133 122 137 148 163 175 187 223 261 290 274 277 260 254 249 236 282 247 249 219 220 184 309 240 247 268 299 292 291 296 317 12 1 291 281 293 287 314 288 244 232 252 257 253 272 280 288 293 292 304 310 308 297
337 335 335 337 340 339 337 335 334 332 336 334 331 330 327 328 325 325 327 327 326 328 328 328 328 330 324 322 313 276 302 307 197 130 162 146 135 141 157 166 180 209 211 248 239 213 229 231 244 226 239 230 255 257 233 212 176 241 234 249 242 248 255 268 270 270 91 307 289 286 283 311 288 284 279 266 249 258 253 265 269 272 277 282 283 284 286 279
328 326 330 329 328 332 334 331 329 332 331 328 328 327 324 323 322 323 321 325 321 323 324 324 324 326 325 308 258 272 240 275 256 130 123 161 133 138 143 144 168 252 240 231 223 209 211 244 208 246 243 247 247 248 255 268 242 228 256 291 294 301 283 287 289 303 188 244 267 271 304 275 284 284 279 264 259 262 268 265 266 269 269 274 275 268 265 261
323 320 323 318 319 326 328 327 328 329 327 324 324 324 322 320 321 319 320 316 320 316 320 320 323 320 338 317 243 239 215 255 37 121 128 126 129 127 133 143 162 203 221 223 208 218 209 235 232 243 256 255 280 282 313 309 294 277 255 237 254 256 268 274 274 262 272 270 276 281 272 264 271 274 299 272 273 270 268 269 270 269 271 266 263 267 257 259
303 310 304 314 321 319 325 326 327 325 324 322 322 321 321 319 319 319 317 316 314 315 313 318 313 322 310 286 285 294 254 13 6 131 150 137 133 143 158 136 199 186 220 235 242 241 232 227 251 250 281 279 272 294 319 321 255 232 271 321 319 305 305 303 304 295 285 282 249 253 258 270 269 284 265 267 267 265 260 258 261 265 264 259 260 253 248 247
296 308 318 312 317 324 323 325 323 322 323 324 322 322 321 320 318 317 315 313 312 312 308 311 318 307 310 224 261 257 266 224 120 152 154 136 123 139 220 169 169 206 223 226 244 248 236 262 294 53 22 316 284 271 277 248 269 347 325 309 310 296 297 281 272 276 265 259 254 234 253 262 264 275 275 258 260 267 266 263 259 273 263 258 265 269 263 250
300 312 309 315 324 322 319 322 320 319 322 322 321 320 319 317 315 313 313 311 310 308 309 299 343 335 257 203 246 257 105 291 330 75 118 121 138 150 197 227 167 217 229 247 242 255 277 283 351 359 342 266 348 287 258 273 14 7 331 320 290 284 272 271 266 261 259 257 235 228 251 273 274 243 255 267 271 269 272 273 268 254 268 276 270 270 271 269
296 300 305 309 313 313 317 317 316 318 319 320 319 317 316 313 311 310 309 307 304 304 299 295 199 255 290 247 237 237 340 43 97 126 109 162 141 87 8 346 204 218 240 256 238 274 35 27 28 275 241 60 263 311 280 354 335 359 11 302 283 280 277 267 262 262 246 246 167 151 273 281 265 237 245 250 259 264 257 261 264 266 258 256 258 262 261 255
266 294 296 304 308 311 314 314 315 317 317 318 317 315 313 311 309 308 307 306 304 301 299 286 182 252 278 256 234 56 292 103 86 117 123 75 78 51 41 2 345 336 17 332 11 358 2 15 20 284 269 287 291 276 170 317 318 291 239 251 285 281 266 268 255 243 238 253 119 95 263 197 261 258 273 265 240 307 306 285 273 264 264 266 275 279 275 274
277 295 302 306 307 312 314 314 315 318 318 317 315 313 310 308 306 305 304 299 299 294 270 157 240 237 242 253 48 286 11 325 132 154 130 132 144 84 216 68 309 314 56 328 61 357 6 24 358 270 295 276 273 30 296 294 282 258 262 238 266 308 270 287 266 97 137 126 125 124 224 229 269 279 268 289 128 283 273 276 273 274 271 271 272 273 274 275
268 252 290 306 310 313 311 311 316 317 317 316 314 310 307 302 301 298 298 294 276 317 184 184 248 225 206 256 78 71 289 308 188 146 136 178 151 128 183 165 155 220 44 31 28 306 34 339 294 283 259 239 250 273 285 267 247 256 290 232 222 210 262 265 285 154 178 249 191 107 261 247 247 260 294 329 326 313 299 285 278 275 276 276 274 273 273 270
263 249 282 291 309 308 305 312 314 313 317 319 315 309 301 289 286 275 329 311 30 155 158 172 197 241 319 277 174 35 214 197 143 35 47 345 218 317 129 147 128 119 171 111 24 344 279 230 218 282 286 256 214 248 277 304 256 244 231 260 259 245 266 302 263 141 178 101 238 162 229 250 268 269 291 308 294 281 278 271 270 271 275 281 285 282 278 299
265 253 261 316 309 303 308 304 294 296 308 308 313 304 293 293 259 270 307 279 166 192 222 329 140 177 270 73 71 234 162 94 269 138 101 284 307 161 131 125 180 168 159 109 202 148 181 182 133 350 221 257 255 250 296 256 275 255 223 251 231 247 284 259 348 302 122 141 198 225 247 239 256 267 270 264 253 250 260 268 267 271 272 277 279 289 294 287
254 271 303 307 295 301 298 285 289 301 304 308 311 294 288 200 241 260 208 254 192 209 245 238 249 246 240 108 259 185 83 117 147 126 79 37 279 200 173 186 116 154 160 162 164 195 153 201 161 219 203 223 226 241 217 242 225 257 280 299 291 300 299 296 310 305 317 250 274 255 244 256 257 281 286 288 282 275 270 273 279 285 300 294 301 317 328 50
287 287 272 290 295 292 280 282 299 310 315 317 299 296 234 222 219 237 256 157 191 148 206 181 196 170 10 227 136 112 60 111 100 164 169 170 235 234 200 254 149 161 181 192 183 189 153 251 162 222 236 223 216 209 220 239 255 268 281 283 293 296 294 285 287 293 286 283 276 269 274 293 302 295 285 279 268 264 262 274 286 290 282 294 345 44 60 62
272 274 278 291 287 271 278 295 310 315 320 326 328 242 217 210 184 171 217 224 250 267 309 250 205 269 303 297 129 33 92 253 152 233 111 244 151 184 184 194 180 218 206 197 147 205 140 176 185 198 216 224 239 232 231 240 245 263 270 266 267 279 280 292 283 280 272 285 266 279 301 310 306 289 275 267 271 272 270 262 263 269 287 26 72 56 68 66
247 251 278 276 272 274 292 309 314 315 315 310 293 284 351 10 325 286 341 253 241 244 257 265 251 262 264 296 149 160 185 206 246 158 193 174 212 157 182 192 169 202 221 225 155 244 144 210 218 213 223 236 246 259 275 285 300 294 285 285 277 262 274 270 281 285 285 276 319 320 295 289 294 284 272 274 279 274 260 254 253 276 40 79 51 59 70 71
243 251 259 263 271 287 302 310 316 312 313 281 264 327 63 49 8 299 264 292 267 272 268 257 259 258 258 267 95 120 89 266 200 143 136 196 177 211 162 197 175 209 199 204 116 86 211 223 235 228 228 245 250 258 262 268 270 278 270 273 282 268 276 271 264 261 276 54 281 305 298 290 283 272 276 278 268 258 248 243 306 71 64 49 59 71 65 58
234 248 259 271 284 296 309 312 311 313 318 316 323 14 58 40 43 328 312 267 265 248 251 254 248 242 248 208 108 118 239 218 245 159 174 188 140 250 158 192 211 220 233 192 197 171 234 218 237 230 240 244 250 250 258 260 247 244 271 281 258 266 268 298 243 347 357 3 309 302 295 292 275 273 270 264 257 266 263 34 71 76 76 67 59 57 62 58
242 256 260 266 281 293 311 314 305 296 237 292 315 53 47 353 324 282 245 241 288 243 218 228 273 293 297 250 83 306 213 247 221 202 163 168 171 208 232 203 216 232 228 213 206 222 224 234 50 173 211 227 252 259 263 261 263 246 233 246 269 273 259 255 307 356 336 315 292 294 282 268 264 268 276 278 224 273 40 82 73 69 66 75 70 61 56 60
238 251 256 263 272 299 309 322 304 217 55 316 123 60 63 19 3 10 283 276 218 235 44 286 104 341 61 133 162 201 212 253 49 38 154 265 223 125 231 217 225 234 241 236 231 234 252 253 254 195 251 265 258 264 253 262 283 280 266 271 289 304 330 354 350 0 358 313 19 26 347 257 290 327 327 309 307 49 51 67 58 57 62 56 57 56 57 55
227 240 248 254 263 300 320 305 125 42 293 353 53 81 41 66 315 27 291 278 280 166 9 185 48 224 9 155 99 229 310 219 27 38 354 82 325 273 42 257 176 240 261 265 249 256 285 47 81 149 258 265 270 263 274 325 270 280 263 1 8 8 15 8 5 35 319 305 273 43 344 275 329 290 273 268 282 81 60 66 62 57 56 55 58 56 51 54
224 232 237 243 241 131 251 195 20 330 250 156 60 43 34 49 305 302 258 238 276 135 132 345 8 212 72 94 209 352 208 136 169 67 247 8 315 174 275 183 73 294 169 297 35 286 189 210 98 48 206 286 281 267 250 223 229 251 235 337 20 37 2 325 311 228 240 252 267 262 221 252 270 253 253 251 126 100 72 66 66 66 63 63 65 60 60 57
224 227 230 234 222 168 274 334 291 233 341 76 16 26 17 347 359 256 233 314 262 112 128 166 8 292 356 159 261 257 52 128 153 128 26 35 331 127 234 259 245 233 143 117 186 282 332 155 144 141 174 207 219 235 251 8 199 219 236 58 1 60 267 265 241 247 244 295 289 223 191 263 242 236 241 231 106 93 93 92 84 75 71 73 67 61 60 55
222 227 227 228 217 204 265 286 309 274 112 27 74 75 309 19 45 273 277 224 58 100 315 79 320 206 129 151 222 222 172 198 306 117 292 160 292 340 189 246 281 295 164 182 220 187 49 99 174 187 161 215 218 231 358 142 231 136 252 292 278 243 236 217 230 243 292 241 252 209 181 210 287 259 281 78 99 116 116 101 86 72 69 59 62 65 57 46
166 167 174 165 140 160 201 112 234 139 143 120 136 176 173 99 118 212 143 238 44 102 47 97 189 127 161 178 193 164 202 126 65 127 186 237 147 283 249 149 305 304 264 225 234 246 114 223 46 76 212 223 176 88 36 23 74 165 279 307 294 261 232 218 197 220 301 237 254 230 198 177 295 295 359 56 162 142 123 109 102 88 73 64 55 55 55 53
84 106 173 158 176 185 141 213 156 144 138 127 154 235 168 182 216 159 223 227 4 54 292 150 138 337 184 222 199 166 257 125 141 156 131 325 131 252 308 334 31 327 348 335 292 257 153 105 49 239 230 313 97 105 6 340 354 54 309 278 331 295 215 154 261 137 169 276 339 338 188 177 155 274 68 45 84 133 146 143 129 107 79 68 61 58 53 51
26 15 166 183 171 172 193 198 163 150 129 131 186 265 222 49 185 214 235 157 246 208 168 101 102 227 214 78 313 138 165 150 119 211 200 178 175 167 206 204 152 305 269 184 252 85 227 210 205 159 303 175 141 17 233 106 129 151 210 288 79 282 72 266 78 322 207 228 226 44 38 354 262 311 303 74 48 57 84 108 120 115 105 83 68 63 60 59
11 347 304 218 113 181 106 130 134 136 115 73 257 279 205 117 252 153 284 168 287 122 195 45 105 130 3 48 269 95 5 173 55 28 62 346 31 236 206 211 295 162 238 91 334 313 267 174 197 195 35 226 151 149 186 355 177 187 183 180 205 319 269 252 262 235 267 154 226 82 20 241 235 272 298 102 78 84 83 90 100 109 107 105 98 79 60 63
7 342 295 188 223 124 131 141 134 131 114 101 180 141 97 222 228 111 201 202 189 335 69 128 316 51 357 222 171 128 209 172 147 195 93 129 76 284 252 233 181 248 192 11 192 221 296 321 239 129 264 160 189 204 169 159 158 209 316 188 184 199 169 278 244 250 241 232 298 321 4 227 132 235 76 106 98 88 88 92 95 94 100 103 99 92 80 62
350 332 344 308 247 142 145 140 139 141 83 85 200 189 218 229 224 208 238 208 85 169 147 31 156 178 225 213 239 200 175 287 190 134 195 195 217 212 220 199 208 144 102 75 230 65 213 238 202 157 297 148 177 203 109 83 2 350 167 56 65 227 157 234 227 224 285 310 298 250 196 245 154 119 105 96 95 89 96 101 103 98 89 86 82 70 59 51
333 20 19 291 250 158 135 140 138 129 132 154 198 197 216 190 202 183 223 36 136 138 131 48 63 202 232 270 202 198 57 127 170 178 235 200 232 259 206 217 171 174 169 183 183 284 125 270 139 74 78 172 201 135 209 136 275 274 66 221 207 301 130 1 346 258 4 310 255 229 294 280 268 106 110 113 93 85 88 87 86 86 84 74 70 63 56 50
38 338 307 232 260 150 143 138 138 117 151 180 207 237 215 239 224 305 173 163 193 106 116 184 219 177 210 228 190 168 220 83 258 149 240 188 260 220 240 254 160 192 193 170 290 213 213 259 83 109 263 252 48 96 50 25 128 86 206 239 305 38 102 133 231 24 162 232 266 257 264 271 206 267 134 117 103 107 79 83 79 80 75 74 66 59 56 52
32 332 281 275 211 148 147 148 136 128 171 200 212 228 135 230 170 220 101 116 90 91 130 174 271 138 222 206 188 165 20 162 208 147 250 175 269 115 260 211 161 176 208 198 173 310 64 306 254 211 210 64 352 80 23 95 39 166 198 319 116 275 317 260 90 258 241 243 278 202 252 249 219 223 153 166 135 128 122 111 113 101 98 98 84 84 70 57
149 353 288 215 167 148 142 141 138 155 195 223 226 237 221 239 338 247 166 154 139 111 191 222 210 218 179 235 252 205 162 201 195 213 190 189 215 348 48 358 28 4 16 324 197 179 141 229 298 23 76 137 88 95 225 238 353 142 130 349 121 95 210 249 181 207 227 264 269 267 273 268 254 8 281 150 125 137 137 141 124 134 119 124 131 125 126 161
184 163 235 38 140 123 125 143 151 196 210 220 215 221 140 16 222 232 220 181 224 163 215 214 195 241 215 245 251 252 191 193 198 226 201 305 284 82 27 20 62 12 358 0 54 9 303 159 262 100 338 77 270 161 219 182 187 19 105 246 11 195 218 157 309 231 203 252 240 272 259 263 335 298 62 110 126 132 132 127 134 131 146 155 171 174 180 191
257 263 249 316 145 134 140 158 198 209 222 247 247 248 226 238 116 345 102 6 300 215 208 233 218 211 216 244 243 236 260 267 253 253 224 239 216 281 50 62 342 70 306 3 105 353 240 270 238 290 272 193 209 162 132 79 69 141 164 218 204 207 277 248 257 213 222 225 248 252 257 247 208 293 97 94 96 99 115 144 142 158 164 169 161 162 171 171
193 220 154 163 151 155 148 182 215 204 229 223 225 200 242 157 112 190 106 255 257 296 307 299 244 246 228 238 248 251 243 221 234 243 234 240 244 262 61 281 353 33 41 39 124 343 130 70 52 252 246 255 239 144 166 153 133 160 155 240 97 68 65 218 253 248 252 235 259 250 267 216 187 271 92 112 117 141 145 147 161 166 162 157 151 146 149 137
210 228 39 287 204 178 166 216 209 207 220 241 281 263 199 329 217 183 162 180 193 192 235 214 220 237 228 240 232 250 224 252 210 229 209 223 290 45 237 354 322 39 40 206 83 288 70 58 263 269 281 287 293 293 59 68 101 44 281 161 151 224 186 238 280 97 291 333 316 278 248 257 221 333 333 91 122 128 149 156 164 161 149 146 140 140 147 119
212 195 153 195 225 221 189 202 208 212 225 235 221 245 212 220 178 199 213 193 187 175 211 211 247 220 262 203 222 241 197 259 219 219 232 212 148 48 18 351 12 73 29 281 110 269 64 274 188 287 281 300 293 85 35 9 31 36 63 354 78 308 283 196 145 181 255 191 242 248 245 272 207 181 260 192 173 165 178 178 160 157 149 152 151 147 122 140
228 204 109 145 146 222 211 215 235 212 216 222 220 230 230 228 216 219 198 206 201 218 208 227 227 257 235 183 199 225 307 239 304 328 135 39 106 87 3 38 29 108 45 334 65 334 144 216 141 197 239 250 250 247 221 68 286 141 189 280 281 222 262 323 287 210 252 208 219 239 269 227 121 227 244 228 217 219 173 154 73 92 138 146 142 152 172 181
205 200 163 135 186 248 271 319 328 267 235 211 225 229 229 237 217 199 209 232 215 223 225 265 105 97 282 295 220 227 229 189 164 270 83 171 111 60 70 49 51 83 149 134 35 22 128 298 195 212 234 251 259 282 308 354 145 234 298 268 259 244 230 219 254 259 258 287 286 255 266 282 286 273 230 227 224 216 218 189 177 195 176 140 145 158 162 171
315 237 164 183 159 226 245 223 231 241 242 217 227 199 225 222 232 208 184 232 219 227 218 218 207 199 210 216 240 240 217 220 213 214 220 190 114 133 139 97 75 62 117 57 284 79 216 226 234 249 249 257 269 277 287 294 287 283 273 267 271 267 254 252 234 254 346 342 263 250 268 270 265 286 319 326 199 229 242 198 195 180 171 163 186 176 177 169
173 260 227 160 197 191 212 212 217 229 249 275 278 245 229 221 212 214 149 220 49 295 190 239 219 223 231 229 216 233 218 231 207 223 211 209 117 178 70 183 109 170 157 118 95 122 142 238 243 266 257 265 264 268 271 278 275 277 271 271 269 268 263 252 255 264 262 240 264 276 281 281 281 283 289 299 310 272 207 195 162 162 159 165 166 154 186 199
264 342 290 303 220 199 215 211 187 210 232 240 266 274 270 247 231 218 170 176 146 255 194 216 230 220 230 56 104 239 236 206 265 97 169 66 105 143 113 71 326 133 209 83 158 167 123 254 255 235 265 267 268 264 275 290 303 293 280 275 273 266 260 262 272 262 252 262 272 276 274 269 278 279 288 299 32 86 89 101 106 121 167 157 177 185 198 210
226 262 277 47 338 0 11 159 167 182 217 222 243 237 249 272 256 176 37 156 193 213 215 233 167 74 92 46 22 221 259 74 136 150 338 105 355 127 175 216 153 351 143 156 144 296 133 266 107 12 289 275 267 272 302 289 267 268 277 275 266 262 270 272 268 262 274 269 264 267 270 268 270 291 122 100 69 75 88 141 133 156 125 111 101 66 60 75
337 70 10 323 298 223 103 264 190 190 216 213 229 241 250 234 251 245 147 12 179 188 176 207 140 118 68 136 255 283 293 149 113 139 142 144 170 279 118 291 101 159 121 64 340 291 44 256 25 139 311 272 267 254 239 231 265 267 267 259 254 256 265 253 253 252 251 255 256 259 252 260 263 131 115 154 121 96 86 61 62 75 87 91 88 205 320 94
68 290 246 279 299 186 152 198 205 187 222 215 217 222 223 223 237 238 274 121 61 23 50 81 144 129 181 141 203 214 122 114 121 111 100 60 64 66 40 129 138 156 191 163 201 129 224 150 198 250 249 251 263 298 142 163 263 271 247 246 254 256 249 259 262 259 251 262 267 262 263 250 177 163 148 133 80 42 72 15 57 359 119 143 189 220 179 110